Consulta les dades en temps real de l'estació meteorològica de Calldetenes
| Hora UTC | 13:05 |
|---|---|
| Temperatura | 38.4 ºC |
| Sòl 15 cm | 42.4 ºC |
| Humitat | 16.4 % |
| Pressió | 1021.1 hPa |
| Pluja | 0.0 mm |
| Velocitat vent | 12.5 km/h |
| Direcció vent | WSW |
| Radiació solar | 719.4 W/m² |
| Temperatura (ºC) | Humitat (%) | Pressió (hPa) | Velocitat vent (km/h) | Precipitació (mm) | Radiació solar (W/m²) | ||||||||||||||
|---|---|---|---|---|---|---|---|---|---|---|---|---|---|---|---|---|---|---|---|
| Hora UTC | Aire | Sòl 15 cm | Humitat | Pressió | Vel. | Dir. | Vel. Max | Dir. | Intent. màx 5 min. | Rad. Sol. | |||||||||
| 00:05 | 19.3 | 19.2 | 70.9 | 1023.6 | 2.2 | SSW | 2.2 | SW | 0.0 | 0.1 | |||||||||
| 00:10 | 19.2 | 19.1 | 70.9 | 1023.6 | 1.1 | S | 3.2 | SSW | 0.0 | 0.1 | |||||||||
| 00:15 | 19.2 | 19.0 | 70.6 | 1023.6 | 1.1 | SSE | 4.6 | ESE | 0.0 | 0.1 | |||||||||
| 00:20 | 19.2 | 19.0 | 71.1 | 1023.6 | 5.3 | ESE | 7.4 | ESE | 0.0 | 0.1 | |||||||||
| 00:25 | 19.4 | 19.1 | 70.6 | 1023.6 | 3.7 | ESE | 5.6 | ESE | 0.0 | 0.1 | |||||||||
| 00:30 | 19.3 | 19.2 | 69.8 | 1023.6 | 3.5 | ESE | 6.7 | ESE | 0.0 | 0.1 | |||||||||
| 00:35 | 19.2 | 19.1 | 71.0 | 1023.5 | 5.7 | ESE | 7.4 | ESE | 0.0 | 0.1 | |||||||||
| 00:40 | 19.1 | 19.1 | 71.2 | 1023.5 | 4.5 | ESE | 6.7 | ESE | 0.0 | 0.1 | |||||||||
| 00:45 | 19.0 | 19.0 | 72.2 | 1023.5 | 5.2 | ESE | 7.4 | ESE | 0.0 | 0.1 | |||||||||
| 00:50 | 19.2 | 19.0 | 71.2 | 1023.5 | 3.4 | ESE | 6.0 | ESE | 0.0 | 0.1 | |||||||||
| 00:55 | 19.1 | 19.0 | 70.5 | 1023.5 | 1.8 | ESE | 3.5 | ESE | 0.0 | 0.1 | |||||||||
| 01:00 | 18.9 | 18.8 | 71.9 | 1023.5 | 2.5 | SE | 4.2 | SE | 0.0 | 0.1 | |||||||||
| 01:05 | 18.8 | 18.7 | 72.6 | 1023.4 | 2.3 | ESE | 3.9 | ESE | 0.0 | 0.1 | |||||||||
| 01:10 | 18.7 | 18.5 | 73.1 | 1023.4 | 0.5 | SE | 1.8 | ESE | 0.0 | 0.1 | |||||||||
| 01:15 | 18.8 | 18.5 | 72.8 | 1023.4 | 0.4 | SSW | 2.1 | SSW | 0.0 | 0.1 | |||||||||
| 01:20 | 18.8 | 18.5 | 72.6 | 1023.4 | 2.0 | S | 4.6 | SSW | 0.0 | 0.1 | |||||||||
| 01:25 | 18.8 | 18.5 | 72.2 | 1023.4 | 1.0 | SSW | 2.5 | SSW | 0.0 | 0.1 | |||||||||
| 01:30 | 18.7 | 18.5 | 72.2 | 1023.4 | 0.5 | SE | 1.8 | SE | 0.0 | 0.1 | |||||||||
| 01:35 | 18.6 | 18.4 | 72.6 | 1023.4 | 0.7 | ESE | 3.5 | ESE | 0.0 | 0.1 | |||||||||
| 01:40 | 18.5 | 18.2 | 73.6 | 1023.4 | 2.4 | ESE | 3.9 | ESE | 0.0 | 0.1 | |||||||||
| 01:45 | 18.5 | 18.2 | 73.9 | 1023.3 | 2.1 | SE | 3.5 | ESE | 0.0 | 0.1 | |||||||||
| 01:50 | 18.5 | 18.2 | 73.6 | 1023.3 | 1.7 | SE | 2.8 | SE | 0.0 | 0.1 | |||||||||
| 01:55 | 18.4 | 18.2 | 73.6 | 1023.3 | 0.1 | SSE | 1.8 | SSE | 0.0 | 0.1 | |||||||||
| 02:00 | 18.2 | 18.0 | 74.7 | 1023.3 | 0.0 | NNE | 0.0 | SSE | 0.0 | 0.1 | |||||||||
| 02:05 | 18.1 | 17.9 | 74.6 | 1023.3 | 0.0 | NNE | 0.0 | SSE | 0.0 | 0.1 | |||||||||
| 02:10 | 18.1 | 17.8 | 74.9 | 1023.3 | 0.0 | NNE | 0.0 | SSE | 0.0 | 0.1 | |||||||||
| 02:15 | 17.9 | 17.7 | 75.0 | 1023.3 | 0.1 | ESE | 2.5 | ESE | 0.0 | 0.1 | |||||||||
| 02:20 | 17.8 | 17.7 | 75.7 | 1023.3 | 1.9 | ESE | 3.5 | ESE | 0.0 | 0.1 | |||||||||
| 02:25 | 17.7 | 17.6 | 76.4 | 1023.3 | 2.5 | ESE | 4.2 | ESE | 0.0 | 0.1 | |||||||||
| 02:30 | 17.6 | 17.5 | 77.8 | 1023.3 | 3.2 | ESE | 4.6 | ESE | 0.0 | 0.1 | |||||||||
| 02:35 | 17.7 | 17.5 | 76.5 | 1023.3 | 3.2 | ESE | 4.2 | ESE | 0.0 | 0.1 | |||||||||
| 02:40 | 17.5 | 17.4 | 76.9 | 1023.3 | 3.6 | SE | 6.0 | ESE | 0.0 | 0.1 | |||||||||
| 02:45 | 17.5 | 17.3 | 78.0 | 1023.2 | 3.8 | ESE | 6.0 | SE | 0.0 | 0.1 | |||||||||
| 02:50 | 17.5 | 17.3 | 77.6 | 1023.2 | 1.4 | SE | 4.2 | SE | 0.0 | 0.1 | |||||||||
| 02:55 | 17.3 | 17.2 | 78.0 | 1023.2 | 0.0 | SSE | 1.1 | SSE | 0.0 | 0.1 | |||||||||
| 03:00 | 17.2 | 17.1 | 78.7 | 1023.2 | 1.6 | ESE | 3.9 | ESE | 0.0 | 0.1 | |||||||||
| 03:05 | 17.2 | 17.0 | 78.9 | 1023.2 | 3.2 | ESE | 4.2 | ESE | 0.0 | 0.1 | |||||||||
| 03:10 | 17.2 | 17.0 | 78.9 | 1023.2 | 1.2 | ESE | 3.5 | ESE | 0.0 | 0.1 | |||||||||
| 03:15 | 17.1 | 17.0 | 79.1 | 1023.2 | 3.3 | ESE | 4.6 | ESE | 0.0 | 0.1 | |||||||||
| 03:20 | 17.0 | 16.9 | 79.2 | 1023.2 | 2.3 | ESE | 4.2 | ESE | 0.0 | 0.1 | |||||||||
| 03:25 | 16.8 | 16.7 | 80.3 | 1023.2 | 0.7 | SE | 2.5 | ESE | 0.0 | 0.1 | |||||||||
| 03:30 | 16.7 | 16.6 | 81.5 | 1023.2 | 0.3 | SSW | 1.4 | SSW | 0.0 | 0.1 | |||||||||
| 03:35 | 16.7 | 16.5 | 81.5 | 1023.2 | 0.4 | SSW | 1.8 | S | 0.0 | 0.1 | |||||||||
| 03:40 | 16.8 | 16.5 | 81.4 | 1023.2 | 2.3 | SSW | 3.5 | SW | 0.0 | 0.1 | |||||||||
| 03:45 | 16.9 | 16.6 | 80.2 | 1023.2 | 1.9 | SSW | 3.9 | SSW | 0.0 | 0.1 | |||||||||
| 03:50 | 16.8 | 16.5 | 80.5 | 1023.2 | 0.9 | SSE | 3.2 | ESE | 0.0 | 0.1 | |||||||||
| 03:55 | 16.8 | 16.4 | 80.8 | 1023.1 | 2.7 | SE | 4.2 | SE | 0.0 | 0.1 | |||||||||
| 04:00 | 16.7 | 16.4 | 80.4 | 1023.1 | 2.5 | ESE | 4.2 | ESE | 0.0 | 0.1 | |||||||||
| 04:05 | 16.5 | 16.3 | 81.5 | 1023.1 | 3.7 | ESE | 5.6 | ESE | 0.0 | 0.1 | |||||||||
| 04:10 | 16.6 | 16.4 | 81.5 | 1023.1 | 4.3 | ESE | 6.4 | ESE | 0.0 | 0.1 | |||||||||
| 04:15 | 16.6 | 16.5 | 81.2 | 1023.0 | 3.4 | ESE | 5.3 | ESE | 0.0 | 0.1 | |||||||||
| 04:20 | 16.4 | 16.4 | 81.2 | 1023.0 | 3.8 | ESE | 5.3 | ESE | 0.0 | 0.1 | |||||||||
| 04:25 | 16.2 | 16.1 | 83.0 | 1023.0 | 4.4 | ESE | 5.3 | ESE | 0.0 | 0.1 | |||||||||
| 04:30 | 16.2 | 16.0 | 83.2 | 1023.0 | 3.6 | ESE | 4.9 | ESE | 0.0 | 0.1 | |||||||||
| 04:35 | 16.3 | 16.0 | 82.9 | 1023.0 | 3.6 | ESE | 4.6 | ESE | 0.0 | 0.1 | |||||||||
| 04:40 | 16.1 | 16.0 | 82.6 | 1023.0 | 4.0 | ESE | 5.3 | ESE | 0.0 | 0.1 | |||||||||
| 04:45 | 16.0 | 15.8 | 84.0 | 1022.9 | 4.3 | ESE | 6.0 | SE | 0.0 | 0.1 | |||||||||
| 04:50 | 16.0 | 15.8 | 84.2 | 1022.9 | 2.5 | SE | 3.9 | SE | 0.0 | 0.1 | |||||||||
| 04:55 | 16.1 | 15.8 | 84.3 | 1022.9 | 1.6 | SE | 3.2 | ESE | 0.0 | 0.1 | |||||||||
| 05:00 | 16.1 | 15.9 | 84.7 | 1022.9 | 1.0 | SE | 2.5 | SE | 0.0 | 0.1 | |||||||||
| 05:05 | 16.2 | 16.0 | 83.3 | 1022.9 | 0.0 | NNE | 0.0 | SSE | 0.0 | 0.3 | |||||||||
| 05:10 | 16.1 | 15.9 | 83.7 | 1022.9 | 0.3 | S | 1.8 | SSW | 0.0 | 0.5 | |||||||||
| 05:15 | 16.1 | 15.9 | 84.5 | 1022.9 | 1.0 | SSW | 2.1 | SSW | 0.0 | 1.1 | |||||||||
| 05:20 | 16.1 | 15.8 | 83.7 | 1022.9 | 0.1 | SSW | 1.4 | SW | 0.0 | 2.3 | |||||||||
| 05:25 | 15.9 | 15.7 | 84.6 | 1022.9 | 0.0 | NNE | 0.0 | SSE | 0.0 | 3.9 | |||||||||
| 05:30 | 16.0 | 15.7 | 84.9 | 1022.9 | 0.0 | W | 1.1 | W | 0.0 | 6.3 | |||||||||
| 05:35 | 16.1 | 15.7 | 84.5 | 1023.0 | 0.0 | NNE | 0.0 | WNW | 0.0 | 9.6 | |||||||||
| 05:40 | 16.3 | 15.9 | 84.0 | 1023.0 | 0.9 | SE | 1.8 | SE | 0.0 | 13.5 | |||||||||
| 05:45 | 16.3 | 16.0 | 83.7 | 1023.0 | 2.0 | SE | 3.2 | ESE | 0.0 | 17.6 | |||||||||
| 05:50 | 16.3 | 16.0 | 84.4 | 1023.0 | 2.8 | SE | 3.9 | SE | 0.0 | 22.0 | |||||||||
| 05:55 | 16.0 | 16.0 | 83.4 | 1023.1 | 3.2 | SE | 5.6 | ESE | 0.0 | 26.4 | |||||||||
| 06:00 | 15.9 | 15.9 | 84.2 | 1023.1 | 4.3 | ESE | 5.3 | ESE | 0.0 | 31.0 | |||||||||
| 06:05 | 15.9 | 15.8 | 85.2 | 1023.1 | 3.5 | ESE | 5.3 | ESE | 0.0 | 35.4 | |||||||||
| 06:10 | 15.9 | 15.7 | 88.1 | 1023.1 | 0.7 | SE | 2.5 | SE | 0.0 | 39.9 | |||||||||
| 06:15 | 15.9 | 15.5 | 88.7 | 1023.1 | 0.1 | SE | 1.4 | SE | 0.0 | 44.8 | |||||||||
| 06:20 | 16.1 | 15.4 | 88.4 | 1023.1 | 0.0 | NNE | 0.0 | SE | 0.0 | 50.6 | |||||||||
| 06:25 | 16.4 | 15.4 | 86.8 | 1023.2 | 0.0 | NNE | 0.0 | SE | 0.0 | 81.5 | |||||||||
| 06:30 | 16.8 | 15.5 | 85.5 | 1023.2 | 0.1 | NNW | 1.1 | NNW | 0.0 | 95.7 | |||||||||
| 06:35 | 17.1 | 15.7 | 84.3 | 1023.3 | 1.2 | NW | 2.5 | NW | 0.0 | 107.8 | |||||||||
| 06:40 | 17.3 | 15.9 | 83.6 | 1023.3 | 1.8 | NW | 2.8 | NW | 0.0 | 122.8 | |||||||||
| 06:45 | 17.5 | 16.2 | 82.4 | 1023.3 | 1.5 | NNW | 2.8 | NNW | 0.0 | 134.6 | |||||||||
| 06:50 | 17.8 | 16.4 | 80.2 | 1023.3 | 1.0 | NNW | 2.8 | NNW | 0.0 | 143.4 | |||||||||
| 06:55 | 18.1 | 16.6 | 77.8 | 1023.3 | 2.3 | SSW | 4.9 | SSW | 0.0 | 158.5 | |||||||||
| 07:00 | 18.9 | 16.8 | 72.7 | 1023.3 | 3.6 | SSW | 5.3 | SSW | 0.0 | 170.2 | |||||||||
| 07:05 | 19.4 | 17.1 | 71.0 | 1023.3 | 3.7 | SSW | 5.6 | S | 0.0 | 194.4 | |||||||||
| 07:10 | 19.6 | 17.3 | 70.0 | 1023.3 | 2.8 | SSW | 4.9 | SSW | 0.0 | 210.6 | |||||||||
| 07:15 | 19.7 | 17.5 | 69.9 | 1023.3 | 1.3 | S | 3.2 | S | 0.0 | 225.2 | |||||||||
| 07:20 | 19.8 | 17.6 | 69.8 | 1023.3 | 0.8 | WSW | 3.2 | WNW | 0.0 | 228.7 | |||||||||
| 07:25 | 19.8 | 17.6 | 69.6 | 1023.3 | 0.4 | ENE | 1.8 | NE | 0.0 | 251.1 | |||||||||
| 07:30 | 19.9 | 17.7 | 70.0 | 1023.3 | 1.6 | NNE | 2.8 | N | 0.0 | 261.7 | |||||||||
| 07:35 | 20.1 | 17.8 | 69.2 | 1023.3 | 0.5 | N | 2.5 | N | 0.0 | 268.4 | |||||||||
| 07:40 | 20.2 | 17.9 | 69.6 | 1023.3 | 0.9 | N | 2.8 | NW | 0.0 | 269.6 | |||||||||
| 07:45 | 20.3 | 18.0 | 68.9 | 1023.3 | 0.8 | NE | 2.5 | ENE | 0.0 | 278.3 | |||||||||
| 07:50 | 20.6 | 18.2 | 67.7 | 1023.3 | 1.2 | NNW | 2.5 | NW | 0.0 | 301.3 | |||||||||
| 07:55 | 20.7 | 18.3 | 67.2 | 1023.3 | 1.2 | NW | 4.6 | NW | 0.0 | 315.3 | |||||||||
| 08:00 | 21.0 | 18.5 | 66.6 | 1023.3 | 3.1 | NNW | 4.6 | NNW | 0.0 | 348.3 | |||||||||
| 08:05 | 21.2 | 18.6 | 65.7 | 1023.3 | 1.5 | NE | 3.5 | E | 0.0 | 368.2 | |||||||||
| 08:10 | 21.4 | 18.8 | 65.4 | 1023.3 | 1.4 | NNE | 4.2 | NNE | 0.0 | 384.8 | |||||||||
| 08:15 | 21.6 | 18.9 | 65.4 | 1023.2 | 2.4 | NNE | 4.9 | NNE | 0.0 | 398.4 | |||||||||
| 08:20 | 21.9 | 19.1 | 64.8 | 1023.2 | 1.6 | NE | 3.9 | NE | 0.0 | 414.2 | |||||||||
| 08:25 | 22.1 | 19.3 | 64.1 | 1023.1 | 2.1 | NNE | 3.5 | NE | 0.0 | 428.8 | |||||||||
| 08:30 | 22.3 | 19.5 | 62.2 | 1023.1 | 0.9 | WNW | 2.5 | WNW | 0.0 | 437.4 | |||||||||
| 08:35 | 22.6 | 19.7 | 61.4 | 1023.1 | 2.5 | WNW | 4.2 | WNW | 0.0 | 448.9 | |||||||||
| 08:40 | 22.8 | 19.9 | 60.2 | 1023.1 | 1.1 | NW | 3.5 | NNE | 0.0 | 467.4 | |||||||||
| 08:45 | 23.2 | 20.1 | 60.0 | 1023.2 | 1.4 | WNW | 5.3 | NNW | 0.0 | 476.0 | |||||||||
| 08:50 | 23.5 | 20.4 | 58.8 | 1023.2 | 1.8 | NNW | 4.2 | NW | 0.0 | 491.8 | |||||||||
| 08:55 | 23.7 | 20.6 | 57.7 | 1023.2 | 3.1 | NW | 6.4 | WNW | 0.0 | 504.7 | |||||||||
| 09:00 | 24.0 | 20.8 | 55.9 | 1023.2 | 0.3 | NW | 3.2 | WSW | 0.0 | 521.4 | |||||||||
| 09:05 | 24.3 | 21.0 | 56.2 | 1023.1 | 2.7 | NW | 5.3 | NW | 0.0 | 509.1 | |||||||||
| 09:10 | 24.6 | 21.2 | 54.7 | 1023.1 | 2.6 | WNW | 6.7 | WNW | 0.0 | 515.4 | |||||||||
| 09:15 | 24.9 | 21.4 | 53.8 | 1023.2 | 1.6 | SW | 4.2 | SW | 0.0 | 544.4 | |||||||||
| 09:20 | 25.4 | 21.6 | 54.0 | 1023.2 | 0.5 | N | 2.5 | ENE | 0.0 | 567.3 | |||||||||
| 09:25 | 25.5 | 21.8 | 52.8 | 1023.1 | 2.6 | NNW | 5.3 | W | 0.0 | 572.6 | |||||||||
| 09:30 | 25.7 | 22.1 | 52.8 | 1023.1 | 1.5 | SSW | 4.6 | WSW | 0.0 | 577.7 | |||||||||
| 09:35 | 26.4 | 22.5 | 50.4 | 1023.0 | 2.2 | WNW | 3.9 | WNW | 0.0 | 590.3 | |||||||||
| 09:40 | 27.6 | 22.9 | 47.1 | 1023.0 | 2.8 | WSW | 6.7 | WSW | 0.0 | 601.4 | |||||||||
| 09:45 | 29.1 | 23.4 | 43.3 | 1023.0 | 1.9 | WSW | 6.4 | W | 0.0 | 613.6 | |||||||||
| 09:50 | 30.1 | 24.0 | 40.8 | 1023.0 | 1.0 | S | 2.5 | SE | 0.0 | 625.7 | |||||||||
| 09:55 | 30.5 | 24.6 | 39.7 | 1022.9 | 0.3 | SSW | 2.1 | S | 0.0 | 634.8 | |||||||||
| 10:00 | 30.8 | 25.1 | 38.5 | 1022.9 | 1.2 | S | 3.9 | SW | 0.0 | 644.8 | |||||||||
| 10:05 | 31.9 | 25.9 | 37.9 | 1022.8 | 1.3 | N | 4.6 | NNE | 0.0 | 653.3 | |||||||||
| 10:10 | 32.2 | 26.8 | 37.6 | 1022.8 | 2.3 | N | 5.3 | NNW | 0.0 | 661.2 | |||||||||
| 10:15 | 32.1 | 27.6 | 36.2 | 1022.7 | 1.3 | NNW | 3.5 | N | 0.0 | 668.6 | |||||||||
| 10:20 | 32.6 | 28.4 | 35.1 | 1022.7 | 1.9 | NNE | 4.9 | NE | 0.0 | 676.4 | |||||||||
| 10:25 | 32.7 | 29.2 | 35.8 | 1022.6 | 2.1 | NNE | 5.6 | NE | 0.0 | 682.9 | |||||||||
| 10:30 | 32.8 | 29.9 | 35.3 | 1022.6 | 2.7 | NW | 4.6 | NW | 0.0 | 689.8 | |||||||||
| 10:35 | 33.1 | 30.7 | 33.3 | 1022.5 | 2.4 | NW | 3.9 | N | 0.0 | 698.5 | |||||||||
| 10:40 | 34.6 | 31.5 | 31.1 | 1022.5 | 0.9 | SSW | 3.2 | WNW | 0.0 | 705.0 | |||||||||
| 10:45 | 36.6 | 32.4 | 28.5 | 1022.3 | 1.2 | S | 3.5 | SSE | 0.0 | 711.4 | |||||||||
| 10:50 | 37.3 | 33.4 | 27.7 | 1022.3 | 1.9 | SE | 4.9 | ENE | 0.0 | 721.4 | |||||||||
| 10:55 | 36.7 | 34.4 | 28.4 | 1022.2 | 1.3 | NNE | 3.2 | NNE | 0.0 | 695.8 | |||||||||
| 11:00 | 36.1 | 35.4 | 30.6 | 1022.2 | 2.8 | N | 5.3 | NNE | 0.0 | 697.3 | |||||||||
| 11:05 | 37.1 | 36.7 | 28.7 | 1022.1 | 1.0 | E | 3.2 | SSE | 0.0 | 726.2 | |||||||||
| 11:10 | 37.6 | 38.1 | 27.1 | 1022.1 | 2.6 | WNW | 7.1 | WNW | 0.0 | 730.0 | |||||||||
| 11:15 | 37.8 | 39.1 | 26.0 | 1021.9 | 0.7 | ESE | 3.2 | NE | 0.0 | 731.4 | |||||||||
| 11:20 | 39.2 | 40.1 | 24.6 | 1021.9 | 2.8 | WSW | 12.4 | SW | 0.0 | 739.9 | |||||||||
| 11:25 | 39.1 | 40.9 | 21.9 | 1021.8 | 5.3 | WSW | 10.6 | WSW | 0.0 | 742.0 | |||||||||
| 11:30 | 38.2 | 41.5 | 22.5 | 1021.8 | 6.7 | SW | 13.4 | SSW | 0.0 | 747.1 | |||||||||
| 11:35 | 37.7 | 41.9 | 20.5 | 1021.7 | 7.5 | SW | 14.1 | SW | 0.0 | 749.3 | |||||||||
| 11:40 | 38.2 | 42.3 | 18.7 | 1021.7 | 8.3 | SW | 21.5 | SW | 0.0 | 752.9 | |||||||||
| 11:45 | 37.7 | 42.4 | 16.2 | 1021.6 | 13.9 | SW | 23.3 | SSW | 0.0 | 754.5 | |||||||||
| 11:50 | 37.8 | 42.2 | 16.6 | 1021.6 | 12.8 | WSW | 29.6 | W | 0.0 | 755.7 | |||||||||
| 11:55 | 37.5 | 42.1 | 16.3 | 1021.6 | 13.6 | W | 25.1 | W | 0.0 | 756.2 | |||||||||
| 12:00 | 37.5 | 42.1 | 16.6 | 1021.6 | 10.1 | WSW | 23.6 | W | 0.0 | 755.2 | |||||||||
| 12:05 | 37.7 | 42.4 | 16.3 | 1021.5 | 15.0 | W | 28.2 | WNW | 0.0 | 755.4 | |||||||||
| 12:10 | 37.6 | 42.4 | 16.6 | 1021.5 | 13.9 | WSW | 27.9 | W | 0.0 | 753.2 | |||||||||
| 12:15 | 37.3 | 42.2 | 16.7 | 1021.6 | 15.9 | W | 28.2 | W | 0.0 | 751.1 | |||||||||
| 12:20 | 37.4 | 42.0 | 16.9 | 1021.6 | 16.4 | WSW | 28.9 | W | 0.0 | 749.6 | |||||||||
| 12:25 | 37.5 | 42.3 | 16.9 | 1021.5 | 11.7 | W | 22.9 | WNW | 0.0 | 748.7 | |||||||||
| 12:30 | 37.7 | 42.5 | 16.7 | 1021.5 | 14.0 | W | 25.4 | W | 0.0 | 748.6 | |||||||||
| 12:35 | 37.7 | 42.7 | 16.8 | 1021.3 | 16.5 | WSW | 31.8 | W | 0.0 | 744.7 | |||||||||
| 12:40 | 37.6 | 42.6 | 16.9 | 1021.3 | 14.7 | WSW | 27.5 | WSW | 0.0 | 739.3 | |||||||||
| 12:45 | 37.6 | 42.3 | 16.8 | 1021.3 | 16.0 | WSW | 30.7 | WSW | 0.0 | 736.8 | |||||||||
| 12:50 | 37.7 | 42.1 | 16.7 | 1021.3 | 16.2 | W | 29.3 | WSW | 0.0 | 732.8 | |||||||||
| 12:55 | 37.9 | 42.0 | 16.6 | 1021.2 | 12.8 | W | 25.4 | WSW | 0.0 | 723.6 | |||||||||
| 13:00 | 38.5 | 42.2 | 16.9 | 1021.2 | 9.5 | W | 23.6 | W | 0.0 | 723.3 | |||||||||
| 13:05 | 38.4 | 42.4 | 16.4 | 1021.1 | 12.5 | WSW | 24.7 | WSW | 0.0 | 719.4 | |||||||||
| Màxima | 39.2 | 42.7 | 88.7 | 1023.6 | 16.5 | WSW | 31.8 | W | 0.0 | 756.2 | |||||||||
| Mínima | 15.9 | 15.4 | 16.2 | 1021.1 | |||||||||||||||
| Total | 0.0 | ||||||||||||||||||